Notices

What's New in latest Release from April 7th, 2021:

- Updated Glossary, including Speed of Maximum Gust, and Total Hourly Precipitation

- Updated national and regional climate services offices contacts and prices information

- Addition of station inventory lists for 1981-2010, 1971-2000, and 1961-1990 Normals.

If you haven't already, please take our survey and provide feedback about our website: https://eccc.sondage-survey.ca/f/LanguageSelection.aspx?s=442ca660-fcf1-47c0-95a9-59707d6fd709

Hourly Data Report for March 02, 2018

MIRAMICHI RCS
NEW BRUNSWICK

47°00'34.000" N
65°27'54.000" W
33.00 m
8100989
71744
ACQ

Download Data

Hourly Data (March 2018)
Hourly Data Report for March 2, 2018
TIME
LST
Temp Definition
°C
Dew Point Definition
°C
Rel Hum Definition
%
Precip. Amount Definition
mm

Wind Dir Definition
10's deg

Wind Spd Definition
km/h
Visibility Definition
km
Stn Press Definition
kPa
Hmdx Definition


Wind Chill Definition


Weather Definition


00:00 -2.3 -3.2 94 0.2 6 26   101.32   -9 LegendNANA
01:00 -2.3 -3.1 94 0.6 6 20   101.30   -8 LegendNANA
02:00 -2.3 -2.9 95 0.4 6 22   101.32   -8 LegendNANA
03:00 -2.1 -2.8 95 0.7 6 20   101.30   -8 LegendNANA
04:00 -2.0 -2.7 95 0.5 6 19   101.28   -8 LegendNANA
05:00 -2.0 -2.7 95 0.9 6 20   101.26   -8 LegendNANA
06:00 -2.0 -2.8 94 0.6 6 23   101.27   -8 LegendNANA
07:00 -2.2 -3.0 94 0.5 6 24   101.28   -9 LegendNANA
08:00 -2.1 -2.9 94 0.2 7 26   101.32   -9 LegendNANA
09:00 -2.0 -2.9 94 0.3 6 24   101.34   -8 LegendNANA
10:00 -1.9 -3.0 92 0.0 6 26   101.35   -8 LegendNANA
11:00 -1.6 -3.0 90 0.2 6 27   101.40   -8 LegendNANA
12:00 -1.0 -3.1 86 0.0 5 32   101.35   -8 LegendNANA
13:00 -0.6 -3.1 83 0.0 6 34   101.31   -8 LegendNANA
14:00 0.0 -3.3 78 0.0 6 27   101.33   -6 LegendNANA
15:00 -0.7 -3.0 85 0.0 8 29   101.32   -7 LegendNANA
16:00 -1.3 -3.3 86 0.0 8 29   101.33   -8 LegendNANA
17:00 -1.7 -3.4 88 0.0 7 25   101.36   -8 LegendNANA
18:00 -1.1 -2.6 90 0.0 5 23   101.36   -7 LegendNANA
19:00 -1.0 -2.3 91 0.0 5 22   101.39   -7 LegendNANA
20:00 -0.9 -1.8 94 0.0 3 20   101.32   -6 LegendNANA
21:00 -0.3 -1.1 94 0.0 4 22   101.28   -6 LegendNANA
22:00 0.2 -0.5 95 0.0 4 14   101.29     LegendNANA
23:00 0.9 0.2 95 0.5 5 26   101.28     LegendNANA

Notes on Data Quality.

Legend

  • E = Estimated
  • M = Missing
  • NA = Not Available*
  • [empty] = Indicates an unobserved value
Date modified: